Total_Precipitation_Accumulation
0.05 0.16 0.36 0.59 1.02 1.35 1.20 0.75 0.48 0.28 0.33 0.42 0.53 0.61 0.59 0.65 0.90 1.41 1.16 0.73 0.49 0.54 0.53 0.65 0.83 0.76 0.78 0.78 0.86 0.99 1.14 1.21 1.23 1.11 1.22 1.43 1.65 1.79 1.93 1.95 1.99 2.19 2.52 2.67 2.53 2.35 2.33 2.25 2.17
0.10 0.30 0.51 0.79 1.17 1.16 0.96 0.58 0.33 0.25 0.27 0.39 0.45 0.42 0.40 0.38 0.35 0.45 0.65 0.58 0.46 0.42 0.32 0.40 0.62 0.70 0.69 0.73 0.82 0.90 0.99 1.10 1.10 1.04 1.10 1.29 1.56 1.81 2.04 2.10 2.05 2.11 2.36 2.64 2.53 2.46 2.36 2.23 2.04
0.18 0.33 0.55 0.84 0.90 0.71 0.59 0.36 0.29 0.29 0.35 0.44 0.43 0.37 0.39 0.49 0.34 0.34 0.45 0.42 0.38 0.31 0.28 0.41 0.53 0.57 0.57 0.61 0.76 0.87 0.98 1.06 1.10 1.03 1.08 1.19 1.50 1.84 1.99 2.00 2.01 2.00 2.17 2.38 2.45 2.32 2.05 1.98 1.89
0.20 0.32 0.47 0.59 0.52 0.40 0.33 0.27 0.25 0.25 0.39 0.55 0.59 0.44 0.35 0.37 0.29 0.28 0.31 0.30 0.29 0.27 0.24 0.36 0.51 0.52 0.54 0.61 0.70 0.82 0.91 1.05 1.17 1.11 1.13 1.26 1.53 1.80 1.92 1.76 1.73 1.84 1.89 1.96 2.08 2.00 1.77 1.80 1.94
0.21 0.30 0.54 0.46 0.36 0.30 0.27 0.23 0.22 0.25 0.34 0.57 0.66 0.62 0.56 0.50 0.34 0.30 0.35 0.30 0.22 0.22 0.27 0.35 0.49 0.52 0.55 0.60 0.66 0.81 0.95 1.12 1.26 1.24 1.25 1.35 1.59 1.84 1.88 1.70 1.83 1.84 1.81 1.82 1.82 1.83 1.85 2.07 2.14
0.22 0.31 0.36 0.35 0.25 0.20 0.19 0.19 0.26 0.30 0.45 0.56 0.57 0.65 0.75 0.66 0.49 0.35 0.36 0.30 0.25 0.21 0.25 0.35 0.47 0.51 0.59 0.70 0.77 0.88 1.04 1.17 1.25 1.24 1.21 1.29 1.54 1.76 1.72 1.69 1.82 1.72 1.77 1.75 1.65 1.61 1.69 1.92 2.11
0.18 0.24 0.26 0.30 0.24 0.19 0.15 0.16 0.30 0.36 0.62 0.76 0.79 0.74 0.88 0.85 0.57 0.41 0.40 0.34 0.34 0.32 0.36 0.41 0.43 0.48 0.60 0.74 0.92 1.04 1.11 1.22 1.21 1.20 1.20 1.33 1.40 1.55 1.62 1.64 1.72 1.72 1.76 1.59 1.47 1.52 1.52 1.64 1.93
0.09 0.15 0.19 0.22 0.19 0.15 0.13 0.16 0.26 0.34 0.54 0.61 0.74 0.87 1.05 0.88 0.62 0.54 0.53 0.53 0.54 0.57 0.60 0.55 0.49 0.53 0.58 0.66 0.94 1.16 1.20 1.22 1.19 1.26 1.32 1.51 1.52 1.48 1.51 1.45 1.54 1.59 1.57 1.52 1.53 1.51 1.51 1.62 1.87
0.08 0.12 0.14 0.15 0.12 0.10 0.10 0.15 0.20 0.36 0.45 0.48 0.61 0.76 0.92 0.70 0.64 0.74 0.86 0.90 0.89 0.86 0.92 0.80 0.75 0.67 0.72 0.78 0.93 1.15 1.17 1.22 1.34 1.44 1.56 1.86 2.01 1.79 1.79 1.56 1.69 1.68 1.65 1.68 1.72 1.69 1.72 1.72 1.91
0.08 0.08 0.07 0.06 0.06 0.07 0.08 0.14 0.20 0.35 0.72 0.93 1.05 0.95 0.80 0.78 0.82 0.89 1.02 1.08 1.11 1.13 0.98 0.98 1.02 0.88 0.96 1.02 1.17 1.53 1.45 1.49 1.70 1.83 1.84 2.16 2.26 2.17 1.70 1.81 2.12 2.17 2.17 2.11 2.11 2.20 2.17 1.87 1.70
0.05 0.05 0.04 0.04 0.03 0.04 0.07 0.12 0.14 0.30 0.83 1.39 1.50 1.16 0.83 0.92 1.06 1.20 1.27 1.31 1.23 1.28 1.15 1.28 1.30 1.24 1.33 1.60 1.41 1.55 1.79 1.96 2.03 2.20 2.38 2.50 2.14 1.96 1.84 2.06 2.36 2.43 2.40 2.30 2.37 2.58 2.37 2.28 2.27
0.02 0.03 0.03 0.03 0.03 0.03 0.05 0.13 0.18 0.32 0.77 1.20 1.22 0.98 0.81 1.03 1.19 1.47 1.62 1.74 1.81 1.84 1.84 1.79 1.84 1.91 1.93 1.75 1.73 1.63 1.68 1.83 2.08 2.32 2.30 2.44 2.50 2.43 2.27 2.35 2.35 2.38 2.48 2.72 2.63 2.75 2.83 2.82 2.57
0.02 0.02 0.03 0.03 0.03 0.05 0.07 0.12 0.23 0.44 0.54 0.60 0.71 0.74 0.85 1.14 1.45 1.81 2.02 2.22 2.35 2.62 2.75 2.70 2.59 2.46 2.51 2.49 2.31 1.91 2.01 1.95 1.95 2.31 2.40 2.46 2.60 2.67 2.58 2.47 2.54 2.27 2.29 2.63 2.96 2.82 2.90 3.03 2.86
0.03 0.02 0.03 0.03 0.04 0.06 0.07 0.13 0.27 0.52 0.53 0.55 0.64 0.69 0.82 1.23 1.77 2.26 2.37 2.49 2.77 3.41 3.86 3.62 3.41 3.11 3.00 3.00 2.88 2.74 2.40 2.30 2.10 2.30 2.40 2.59 2.77 2.85 2.79 2.61 2.60 2.27 2.16 2.40 2.71 2.74 2.94 2.94 2.92
0.04 0.05 0.07 0.07 0.06 0.12 0.14 0.24 0.43 0.64 0.59 0.60 0.71 0.75 0.83 1.21 1.68 2.42 2.80 3.04 3.32 4.05 4.60 4.36 4.23 4.16 3.91 3.79 3.39 2.92 2.61 2.43 2.56 2.67 2.74 2.85 2.94 3.03 2.95 2.80 2.58 2.43 2.45 2.53 2.54 2.65 3.06 2.88 2.74
0.06 0.09 0.19 0.16 0.11 0.15 0.22 0.56 0.65 0.71 0.65 0.69 0.91 0.85 0.85 1.16 1.67 2.39 3.03 3.52 3.85 4.21 4.62 4.97 4.66 5.01 4.93 4.66 4.16 3.59 3.31 3.20 3.05 2.98 3.05 2.88 2.90 2.91 3.05 2.74 2.44 2.57 2.70 2.81 2.81 2.81 3.02 3.04 3.11
0.10 0.16 0.27 0.27 0.18 0.16 0.25 0.66 0.77 0.61 0.63 0.79 0.97 0.98 1.01 1.26 1.62 2.11 2.79 3.35 3.91 4.48 4.99 5.48 5.70 5.78 5.36 4.99 4.58 4.25 4.03 3.76 3.31 2.87 2.70 2.58 2.41 2.26 2.35 2.20 2.13 2.21 2.35 2.33 2.19 2.53 2.78 2.92 3.07
0.10 0.14 0.21 0.37 0.28 0.19 0.26 0.54 0.70 0.64 0.64 0.83 1.05 1.02 1.09 1.30 1.66 2.07 2.64 3.12 3.78 4.62 5.44 5.87 6.00 5.62 5.20 4.83 4.37 4.18 3.87 3.52 3.13 2.70 2.39 2.20 2.11 1.88 1.95 1.77 1.74 1.95 2.16 2.25 2.38 2.57 2.52 2.43 2.54
0.08 0.12 0.19 0.30 0.24 0.21 0.34 0.56 0.67 0.71 0.76 0.92 1.08 1.07 1.13 1.24 1.63 2.10 2.62 3.13 3.79 4.69 5.61 5.96 5.73 5.16 4.71 4.29 3.81 3.43 3.11 2.86 2.74 2.44 2.12 2.03 1.95 1.91 2.09 1.81 1.99 2.03 2.12 2.17 2.16 2.26 2.19 1.96 2.09
0.10 0.14 0.19 0.26 0.20 0.22 0.36 0.59 0.78 0.88 0.97 0.93 0.98 1.09 1.05 1.25 1.68 2.21 2.80 3.21 3.53 4.05 4.79 5.08 4.76 4.13 3.54 3.26 3.11 2.93 2.83 2.51 2.33 2.24 2.14 1.86 1.85 1.83 1.83 1.92 1.70 1.75 1.90 1.86 1.90 2.20 2.15 1.86 1.94
0.11 0.13 0.19 0.23 0.16 0.24 0.39 0.77 1.05 1.11 0.91 0.73 0.66 0.79 0.81 0.98 1.50 2.24 2.77 3.06 3.31 3.51 3.50 3.60 3.51 3.02 2.67 2.58 2.57 2.52 2.60 2.42 2.19 2.07 1.94 1.69 1.61 1.53 1.57 1.60 1.65 1.76 1.69 1.77 1.86 1.96 2.08 1.97 1.79
0.11 0.09 0.09 0.12 0.16 0.36 0.47 1.08 1.33 1.15 0.99 0.77 0.62 0.63 0.66 0.87 1.34 2.10 2.39 2.51 2.54 2.63 2.43 2.42 2.51 2.34 2.28 2.19 2.22 2.10 1.96 1.92 1.84 1.85 1.80 1.69 1.56 1.48 1.37 1.41 1.46 1.62 1.61 1.83 1.62 1.70 1.93 1.96 1.74
0.11 0.08 0.08 0.12 0.18 0.36 0.57 0.97 1.35 1.21 1.12 0.82 0.62 0.58 0.68 0.76 1.03 1.38 1.46 1.58 1.66 1.73 1.76 1.93 2.20 2.23 2.11 2.04 2.16 2.18 1.90 1.74 1.67 1.69 1.77 1.68 1.56 1.46 1.33 1.36 1.46 1.54 1.59 1.62 1.63 1.86 1.84 1.78 1.75
0.08 0.11 0.16 0.29 0.44 0.76 0.77 0.90 1.34 1.18 0.92 0.66 0.55 0.56 0.51 0.53 0.72 0.92 0.98 1.03 1.10 1.16 1.28 1.49 1.90 2.10 1.95 1.89 1.95 1.93 1.86 1.79 1.67 1.58 1.61 1.60 1.55 1.54 1.53 1.44 1.53 1.51 1.52 1.53 1.55 1.69 1.73 1.76 1.82
0.09 0.13 0.36 0.75 1.17 1.26 0.78 0.88 1.21 0.82 0.57 0.43 0.37 0.40 0.43 0.55 0.64 0.75 0.91 0.96 0.88 0.85 0.98 1.19 1.49 1.61 1.57 1.62 1.74 1.82 1.88 1.82 1.66 1.59 1.52 1.51 1.42 1.48 1.61 1.57 1.58 1.59 1.60 1.50 1.54 1.59 1.57 1.64 1.77
0.10 0.12 0.26 0.47 0.61 0.73 0.73 1.16 1.26 0.70 0.46 0.35 0.32 0.33 0.44 0.52 0.49 0.52 0.62 0.64 0.62 0.69 0.77 0.94 1.10 1.17 1.26 1.37 1.55 1.68 1.70 1.70 1.65 1.71 1.59 1.48 1.36 1.34 1.48 1.59 1.59 1.52 1.45 1.42 1.69 1.56 1.49 1.59 1.65
0.08 0.09 0.11 0.14 0.21 0.50 0.83 1.08 0.97 0.63 0.43 0.33 0.33 0.31 0.40 0.41 0.36 0.35 0.37 0.39 0.45 0.61 0.72 0.79 0.89 1.00 1.10 1.21 1.42 1.56 1.58 1.55 1.57 1.64 1.58 1.42 1.42 1.37 1.44 1.41 1.53 1.53 1.42 1.46 1.63 1.60 1.55 1.60 1.58
0.09 0.09 0.08 0.10 0.22 0.46 0.79 1.14 1.14 0.82 0.63 0.53 0.40 0.32 0.36 0.35 0.30 0.32 0.31 0.30 0.31 0.38 0.54 0.68 0.76 0.92 1.08 1.16 1.19 1.26 1.42 1.40 1.37 1.32 1.30 1.37 1.39 1.38 1.45 1.46 1.38 1.40 1.44 1.51 1.62 1.58 1.54 1.64 1.73
0.08 0.08 0.08 0.09 0.11 0.25 0.61 0.92 0.76 0.63 0.51 0.53 0.47 0.41 0.37 0.35 0.33 0.29 0.33 0.34 0.32 0.35 0.46 0.59 0.66 0.78 0.90 0.92 0.94 1.07 1.17 1.18 1.14 1.13 1.11 1.21 1.24 1.28 1.30 1.33 1.34 1.33 1.42 1.63 1.88 1.81 1.77 1.80 1.86
0.08 0.07 0.09 0.11 0.12 0.15 0.32 0.52 0.41 0.42 0.41 0.47 0.49 0.51 0.50 0.50 0.47 0.41 0.43 0.40 0.41 0.41 0.43 0.53 0.54 0.57 0.64 0.70 0.77 0.88 1.00 1.00 1.00 1.03 1.17 1.25 1.22 1.16 1.07 1.12 1.19 1.18 1.29 1.55 1.87 2.01 2.02 2.06 2.02